Regional Weather Roundup
Issued by NWS

Home | Current Version | Previous Version | Graphics & Text | Print | Product List | Glossary On
Versions: 1 2 3 4 5 6 7 8 9 10 11 12 13 14 15 16 17 18 19 20 21 22 23 24 25 26 27 28 29 30 31 32 33 34 35 36 37 38 39 40 41 42 43 44 45 46 47 48 49 50
000
ASUS45 KTFX 032110
RWRMT
MONTANA REGIONAL WEATHER ROUNDUP
NATIONAL WEATHER SERVICE GREAT FALLS MT
300 PM MDT FRI JUL 03 2015

NOTE: "FAIR" INDICATES FEW OR NO CLOUDS BELOW 12000 FEET WITH NO
SIGNIFICANT WEATHER AND/OR OBSTRUCTIONS TO VISIBILITY.

MTZ001>007-043-032200-
WEST OF THE DIVIDE

CITY           SKY/WX    TMP DP  RH WIND       PRES   REMARKS
KALISPELL      CLEAR     93  45  19 S8        29.87F
MISSOULA       SUNNY     94  36  13 W12G18    29.91F
BUTTE          MOSUNNY   85  33  15 VRB6      30.06F
MULLAN PASS    SUNNY     80  39  23 MISG      30.14F
DEER LODGE       N/A     88  41  19 NW3       30.03F
EUREKA           N/A     93  43  17 SW6       29.85F
HAMILTON         N/A     91  43  18 SE5       29.94F
PLAINS           N/A     95  48  20 NW14      29.87F HX  91
RONAN            N/A     91  51  25 E2        29.96F
THOMPSON FALLS   N/A     97  42  15 W14       29.90F HX  93
$$

MTZ008-052>055-032200-
SOUTHWEST MONTANA

CITY           SKY/WX    TMP DP  RH WIND       PRES   REMARKS
BOZEMAN        MOSUNNY   89  40  17 NW8       29.97F
DILLON         SUNNY     89  36  15 CALM      30.02F
W YELLOWSTONE  MOSUNNY   82  32  16 SW13G24   30.13F
THREE FORKS      N/A     89  44  20 NE3       29.96F
$$

MTZ009-010-012-014-046-048-049-054-032200-
EAST SLOPES AND CENTRAL MONTANA

CITY           SKY/WX    TMP DP  RH WIND       PRES   REMARKS
CUT BANK       PTSUNNY   90  39  16 NW12      29.90F
GREAT FALLS    MOSUNNY   93  40  15 VRB6      29.89F
MALMSTROM AFB  MOSUNNY   91  41  17 S5G13     29.89F
HELENA         MOSUNNY   93  45  19 CALM      29.91F
CONRAD           N/A     90  51  26 NW1       29.93F
$$

MTZ011-013-016-021-045-047-050-051-032200-
NORTH CENTRAL MONTANA

CITY           SKY/WX    TMP DP  RH WIND       PRES   REMARKS
HAVRE          MOSUNNY   93  44  18 E6        29.83F
LEWISTOWN      MOSUNNY   89  47  23 N7        29.96F
CHINOOK          N/A     91  46  21 N7        29.83F
FORT BENTON      N/A     93  45  18 CALM      29.85F
$$

MTZ017>020-022>027-061-062-032200-
NORTHEAST MONTANA

CITY           SKY/WX    TMP DP  RH WIND       PRES   REMARKS
GLASGOW        SUNNY     86  52  30 S10G16    29.89F
JORDAN           N/A     89  49  25 VRB5      29.90F
SIDNEY         SUNNY     88  57  35 SE6       29.92F
WOLF POINT     MOSUNNY   87  60  40 NE7       29.90F
MALTA            N/A     91  51  25 SE1       29.84F
PLENTYWOOD       N/A     82  61  47 S6        29.92F
POPLAR           N/A     84  61  45 NE3       29.91F
SCOBEY           N/A     81  57  43 S8        29.93F
$$

MTZ028>42-056>058-032200-
SOUTHCENTRAL AND SOUTHEAST MONTANA

CITY           SKY/WX    TMP DP  RH WIND       PRES   REMARKS
BAKER          MOSUNNY   85  57  38 S8        29.97F
BILLINGS       MOSUNNY   90  51  26 CALM      29.94F
LIVINGSTON     SUNNY     88  47  24 SE6       29.97F
MILES CITY     SUNNY     88  52  29 CALM      29.90F
EKALAKA          N/A     83  52  34 SE3       29.98F
FORSYTH          N/A     88  52  29 E7        29.90F
LAUREL           N/A     90  52  27 NE5       29.93F
ROUNDUP          N/A     90  50  25 E2        29.85F
$$

REGIONAL REPORTS...DAKOTAS

CITY           SKY/WX    TMP DP  RH WIND       PRES   REMARKS
WILLISTON      SUNNY     85  55  35 VRB3      29.93F
MINOT          CLOUDY    81  62  52 VRB3      29.93F HAZE
DICKINSON      PTSUNNY   79  61  53 SE8       29.96F
BEACH          FAIR      82  55  39 SE9       29.96F
CROSBY         FAIR      79  66  65 S3        29.94F HAZE
BISMARCK       MOSUNNY   81  63  54 CALM      29.95F HAZE
GRAND FORKS    MOSUNNY   82  58  43 N7        29.91S HAZE
FARGO          MOSUNNY   83  64  52 N6        29.91F HAZE
BUFFALO SD       N/A     84  56  38 S9        29.93F
RAPID CITY     SUNNY     80  60  50 SE8       30.02F
$$

REGIONAL REPORTS...WYOMING/IDAHO/WASHINGTON

CITY           SKY/WX    TMP DP  RH WIND       PRES   REMARKS
GILLETTE       MOSUNNY   85  52  32 N7        30.02F
SHERIDAN       SUNNY     88  47  24 E6        29.98F
BUFFALO WY     MOSUNNY   83  50  31 E8        30.06F
CODY           MOSUNNY   86  48  26 E14       30.00F
YELLOWSTONE LA   N/A     80  29  15 NW10G17   30.24S
IDAHO FALLS    SUNNY     92  46  20 S13       29.99F
SALMON         SUNNY     91  39  16 SW6       29.91F
BOISE          SUNNY     99  39  12 NW14      29.88F HX  94
SPOKANE        MOSUNNY   97  37  12 NW13G20   29.88F HX  92
$$

REGIONAL REPORTS...ALBERTA

CITY           SKY/WX    TMP DP  RH WIND       PRES   REMARKS
EDMONTON       SUNNY     75  45  33 NW8G18    29.84F
CALGARY        MOSUNNY   84  48  28 NE5       29.89F
LETHBRIDGE     PTSUNNY   90  45  20 SW6       29.85F
MEDICINE HAT   PTSUNNY   93  50  22 SW14      29.78F HX  90
WATERTON GATE    N/A     88  46  23 SW13G20     N/A
CARDSTON         N/A     86  52  30 N1          N/A
MILK RIVER       N/A     93  43  17 SW6G18      N/A
ONEFOUR          N/A     91  41  17 SW13G21     N/A
$$

REGIONAL REPORTS...SASKATCHEWAN

CITY           SKY/WX    TMP DP  RH WIND       PRES   REMARKS
SWIFT CURRENT  MOSUNNY   86  55  35 S15G21    29.87F
REGINA         PTSUNNY   84  59  42 S8        29.89S SMOKE
SASKATOON      PTSUNNY   91  54  27 SW16      29.81F
CYPRESS HILLS    N/A     82  45  26 SW10        N/A
ASSINIBOIA       N/A     84  57  39 NW15G21     N/A
$$


USA.gov is the U.S. government's official web portal to all federal, state and local government web resources and services.